Regional Weather Roundup
Issued by NWS

Home | Current Version | Previous Version | Text Only | Print | Product List | Glossary On
Versions: 1 2 3 4 5 6 7 8 9 10 11 12 13 14 15 16 17 18 19 20 21 22 23 24 25 26 27 28 29 30 31 32 33 34 35 36 37 38 39 40 41 42 43 44 45 46 47 48 49 50
263
ASUS44 KLIX 140610
RWRLA
LOUISIANA WEATHER ROUNDUP
NATIONAL WEATHER SERVICE NEW ORLEANS LA
1200 AM CST SUN FEB 14 2016

NOTE: "FAIR" INDICATES FEW OR NO CLOUDS BELOW 12,000 FEET WITH NO
      SIGNIFICANT WEATHER AND/OR OBSTRUCTIONS TO VISIBILITY.
      SKY/WX - SKY CONDITION AND SIGNIFICANT WEATHER.
      TMP - AIR TEMPERATURE.    DP   - DEWPOINT TEMPERATURE.
      RH  - RELATIVE HUMIDITY.  PRES - PRESSURE.
      HX  - HEAT INDEX.         WCI  - WIND CHILL INDEX.

*  THESE STATIONS ARE NOT NWS OR FAA STATIONS AND ARE NOT UNDER
   NWS QUALITY CONTROL.

LAZ040-048-061>063-065-066-069-140700-
SOUTHEAST LOUISIANA

CITY           SKY/WX    TMP DP  RH WIND       PRES   REMARKS
N.O. AUDUBON     N/A    N/A N/A N/A MISG        N/A
6HR MIN TEMP:  50; 6HR MAX TEMP:  58;

N.O. INTL ARPT PTCLDY    48  37  65 SE3       30.30F
6HR MIN TEMP:  48; 6HR MAX TEMP:  60;

N.O. LAKEFRONT CLEAR     49  41  74 E7        30.31F
6HR MIN TEMP:  48; 6HR MAX TEMP:  55;

N.O. DOWNTOWN* NOT AVBL
RESERVE*       FAIR      49  43  78 E3        30.29F
6HR MIN TEMP:  48; 6HR MAX TEMP:  56;

SLIDELL        CLEAR     43  33  68 E3        30.31F
6HR MIN TEMP:  39; 6HR MAX TEMP:  54;

BATON ROUGE    PTCLDY    46  37  71 E7        30.28F
6HR MIN TEMP:  46; 6HR MAX TEMP:  59;

BOOTHVILLE     CLEAR     49  41  74 N3        30.31F
6HR MIN TEMP:  46; 6HR MAX TEMP:  52;

BELLE CHASSE   CLEAR     39  38  96 CALM      30.30F
6HR MIN TEMP:  39; 6HR MAX TEMP:  54;

BOGALUSA*        N/A     37  32  82 CALM      30.33F
6HR MIN TEMP:  37; 6HR MAX TEMP:  54;

GALLIANO*      CLEAR     49  42  77 CALM      30.29F
6HR MIN TEMP:  44; 6HR MAX TEMP:  56;

NEW ROADS*     FAIR      48  37  65 CALM      30.27F
6HR MIN TEMP:  48; 6HR MAX TEMP:  56;

GONZALES*      FAIR      49  40  72 SE3       30.28F
6HR MIN TEMP:  46; 6HR MAX TEMP:  57;

HAMMOND*       CLEAR     46  30  53 E7        30.30F
HOUMA*         CLEAR     44  41  90 E6        30.29F
6HR MIN TEMP:  43; 6HR MAX TEMP:  56;

PORT FOURCHON* CLEAR     55  41  58 E9        30.29F

$$

LAZ041-044-053-054-140700-
SOUTHWEST LOUISIANA

CITY           SKY/WX    TMP DP  RH WIND       PRES   REMARKS
LAKE CHARLES   CLOUDY    56  49  77 E6        30.24F
6HR MIN TEMP:  55; 6HR MAX TEMP:  60;

LAFAYETTE      PTCLDY    52  45  77 SE5       30.26F
6HR MIN TEMP:  52; 6HR MAX TEMP:  62;

PATTERSON      CLEAR     50  43  76 SE6       30.27F
6HR MIN TEMP:  48; 6HR MAX TEMP:  59;

SALT POINT       N/A     52  48  86 E6        30.25F
6HR MIN TEMP:  51; 6HR MAX TEMP:  57;

NEW IBERIA     CLEAR     47  44  90 SE7       30.26F
6HR MIN TEMP:  47; 6HR MAX TEMP:  57;

CHENAULT AIRPK CLOUDY    54  49  84 E3        30.24F
6HR MIN TEMP:  54; 6HR MAX TEMP:  61;


$$

LAZ027-028-140700-
CENTRAL LOUISIANA

CITY           SKY/WX    TMP DP  RH WIND       PRES   REMARKS
FORT POLK      CLEAR     49  32  52 E7        30.24F
6HR MIN TEMP:  49; 6HR MAX TEMP:  56;

ALEXANDRIA INT CLOUDY    48  28  46 E6        30.24F
6HR MIN TEMP:  47; 6HR MAX TEMP:  54;

ALEXANDRIA     CLOUDY    49  25  39 E5        30.26F
6HR MIN TEMP:  44; 6HR MAX TEMP:  54;


$$

LAZ001-002-140700-
NORTHWEST LOUISIANA

CITY           SKY/WX    TMP DP  RH WIND       PRES   REMARKS
SHREVEPORT     MOCLDY    45  23  42 SE9       30.22F
6HR MIN TEMP:  45; 6HR MAX TEMP:  57;

BARKSDALE AFB  PTCLDY    41  21  44 SE8       30.23F
6HR MIN TEMP:  41; 6HR MAX TEMP:  54;

DTN SHREVEPORT PTCLDY    44  19  36 SE8       30.24F
6HR MIN TEMP:  43; 6HR MAX TEMP:  56;


$$

LAZ014-016-140700-
NORTHEAST LOUISIANA

CITY           SKY/WX    TMP DP  RH WIND       PRES   REMARKS
MONROE         CLOUDY    42  21  43 E5        30.28F
6HR MIN TEMP:  39; 6HR MAX TEMP:  45;

TALLULAH       CLOUDY    44  22  41 SE7       30.29F
6HR MIN TEMP:  40; 6HR MAX TEMP:  46;


$$





USA.gov is the U.S. government's official web portal to all federal, state and local government web resources and services.